Home   Weather   St. Louis   Past weeks

Flag for USA Past Weather in St. Louis, Missouri, USA — Yesterday and Last 2 Weeks

Now
48 °F

Light rain. Fog.


Feels Like: 48 °F
Forecast: 45 / 56 °F
Wind: No wind

Location: Lambert-St. Louis International Airport

Current Time: Jan 19, 2017 at 9:58:07 pm

Latest Report: Jan 19, 2017 at 9:25 pm


Visibility: 1 mi

Pressure: 29.66 "Hg

Humidity: 93%

Dew Point: 46 °F

Location of St. LouisLocation

Past Weather in St. Louis — Graph

°F

St. Louis Temperature Yesterday

Maximum temperature yesterday: 48 °F (at 12:51 pm)
Minimum temperature yesterday: 37 °F (at 6:51 am)
Average temperature yesterday: 43 °F

High & Low Weather Summary for the Past Weeks

 TemperatureHumidityPressure
High71 °F (Jan 11, 2:51 pm)97% (Jan 16, 1:51 am)30.82 "Hg (Jan 16, 1:51 am)
Low5 °F (Jan 7, 3:51 am)38% (Jan 9, 2:51 pm)29.52 "Hg (Jan 10, 12:51 pm)
Average35 °F74%30.23 "Hg
* Reported Jan 4 7:51 pm — Jan 19 7:51 pm, St. Louis, Weather by CustomWeather, © 2017

Note: Actual official high and low records may vary slightly from our data, if they occured in-between our weather recording intervals... More about our weather records

Advertising

St. Louis Weather History for the Previous 24 Hours

Scroll right to see more
 ConditionsComfort  
Time TempWeatherWind HumidityBarometerVisibility
7:51 pm
Thu, Jan 19
47 °FFog.7 mph97%29.67 "Hg0 mi
7:12 pm48 °FFog.5 mph93%29.69 "Hg0 mi
6:51 pm48 °FFog.3 mph93%29.71 "Hg1 mi
5:51 pm48 °FDrizzle. Fog.7 mph93%29.72 "Hg1 mi
4:51 pm47 °FFog.8 mph93%29.72 "Hg1 mi
3:51 pm47 °FFog.9 mph93%29.72 "Hg1 mi
3:18 pm47 °FFog.8 mph93%29.72 "Hg1 mi
2:51 pm48 °FFog.8 mph89%29.74 "Hg2 mi
2:26 pm47 °FFog.9 mph90%29.73 "Hg1 mi
1:51 pm47 °FLight rain. Fog.8 mph90%29.76 "Hg1 mi
1:15 pm47 °FLight rain. Fog.7 mph90%29.78 "Hg2 mi
12:51 pm47 °FLight rain. Fog.6 mph90%29.80 "Hg1 mi
12:30 pm47 °FLight rain. Fog.8 mph86%29.82 "Hg2 mi
11:51 am46 °FLight rain. Fog.7 mph89%29.84 "Hg4 mi
11:11 am46 °FLight rain. Fog.8 mph89%29.88 "Hg5 mi
10:51 am46 °FLight rain. Fog.9 mph89%29.89 "Hg4 mi
10:27 am46 °FLight rain. Fog.13 mph86%29.89 "Hg4 mi
9:51 am45 °FLight rain. Fog.9 mph90%29.93 "Hg4 mi
9:35 am45 °FLight rain. Fog.9 mph90%29.90 "Hg4 mi
8:51 am45 °FFog.7 mph86%29.93 "Hg4 mi
8:33 am44 °FLight rain. Fog.10 mph89%29.93 "Hg2 mi
8:08 am44 °FLight rain. Fog.8 mph89%29.93 "Hg1 mi
7:20 am43 °FLight rain. Fog.6 mph89%29.94 "Hg2 mi
6:36 am43 °FDrizzle. Fog.8 mph89%29.93 "Hg3 mi
5:59 am43 °FLight rain. Fog.9 mph86%29.93 "Hg3 mi
4:51 am44 °FLight rain. Mostly cloudy.9 mph82%29.96 "Hg5 mi
4:12 am44 °FMostly cloudy.6 mph82%29.97 "Hg8 mi
3:51 am44 °FOvercast.6 mph82%29.98 "Hg9 mi
2:51 am44 °FOvercast.6 mph79%30.02 "Hg10 mi
1:51 am44 °FOvercast.6 mph79%30.03 "Hg10 mi
12:51 am44 °FOvercast.6 mph76%30.04 "Hg10 mi
11:51 pm
Wed, Jan 18
45 °FLight rain. Mostly cloudy.6 mph74%30.05 "Hg10 mi
10:51 pm44 °FMostly cloudy.8 mph76%30.06 "Hg10 mi
9:51 pm44 °FOvercast.6 mph73%30.08 "Hg10 mi
Weather by CustomWeather, © 2017

See weather overviewHow to use our weather pages